Погода в Маразе

Погода в Маразе : погода сейчас, прогноз погоды и архив. Всё, что Вы хотите узнать о погоде в Маразе!

Поиск расширенной информации на нашем сайте:

Другие новости

Новости СМИ2

Главная страница сайта

Новости сайта

03.07.2017

Напоминаем, что на нашем специализированном сайте Метеоцентр.Азия вы можете получить высокодетализированные автоматические прогнозы погоды по пунктам России, СНГ и мира в авиационном формате (включающие направление и скорость ветра, видимость, явления погоды, количество и форму облачности, нижнюю и верхнюю границу облачности).


Погода в Маразе - сегодня

Время (UTC), дата Ветер
(°,м/с) 
Видим.   Явления Облачность Т
(°С)
Тd
(°С)
f(%) Тe
(°С)
Pmin
(гПа)
dP
(гПа)
Po
(мм)
O2
(г/м3)
Тmin Tmax R s Состояние
почвы
00 19.11.17 260 (З) 0500 м  туман  ?/?  
+6.7 +6.7 100 +4  1022.6  -0.6  700  274           
03 19.11.17 280 (З) 4000 м  дымка{туман}  10/10 300 м 
[Frnb]
+6.6 +6.2 97 +5  1021.3  -1.2  699  274           
06 19.11.17 260 (З) 4000 м  дымка{туман}  10/10 300 м 
[Frnb]
+7.2 +6.5 95 +6  1020.7  -0.3  699  273  +6         
09 19.11.17 270 (З) 20000 м    6/0 верхняя 
[Ci sp]
+10.7 +7.6 81 +9  1018.7  -0.8  698  269           
12 19.11.17 230 (ЮЗ) 20000 м    8/0 верхняя 
[Ci sp]
+12 +6.8 70 +12  1016.6  -1.6  697  268           
15 19.11.17 280 (З) 10 км    10/0 верхняя 
[Ci sp]
+8.1 +6.1 87 +8  1017.5  -0.3  697  272           
18 19.11.17 270 (З) 10 км    ясно 
+6.5 +5.1 91 +7  1017.6  -0.4  697  273    +12.6       
21 19.11.17 280 (З) 10 км    ясно 
+6 +4.6 91 +4  1017  -0.8  696  274           
00 20.11.17 290 (З) 10 км    ясно 
+5.8 +3.7 86 +5  1016.8  -0.2  696  274           
03 20.11.17 290 (З) 10 км    8/8 600 м 
[Sc]
+5.3 +3.9 91 +3  1015.8  -1.1  695  274           
06 20.11.17 280 (З) 20000 м    8/0 верхняя 
[Ci sp]
+7 +5.1 88 +5  1014.7  -0.4  695  272  +4.7         
09 20.11.17 250 (З) 20000 м    6/0 верхняя 
[Ci sp]
+16 +6.1 52 +15  1011.1  -0.8  694  263           
12 20.11.17 280 (З) 20000 м    3/0 верхняя 
[Ci sp]
+15.7 +5.1 49 +16  1011.1  694  264           
15 20.11.17 280 (З) 10 км    ясно 
+10.9 +5 67 +10  1012.9  0.3  695  268           
18 20.11.17 300 (СЗ) 10 км    ясно 
+8.6 +5.5 81 +7  1013.6  695  270    +16.8       
21 20.11.17 260 (З) 10 км    ясно 
+8.4 +5.5 82 +6  1011.9  -1.7  693  270           
00 21.11.17 280 (З) 10 км    ясно 
+7.9 +4.3 78 +7  1011.5  -0.6  693  270           
03 21.11.17 260 (З) 10 км    ясно 
+7.7 +3 72 +6  1010.6  -0.8  692  271           
06 21.11.17 270 (З) 20000 м    6/0 верхняя 
[Ci sp]
+12.2 +4.8 61 +12  1008.7  -0.4  692  266  +7.1         
09 21.11.17 270 (З) 20000 м    8/0 верхняя 
[Ci sp]
+16.8 +5.6 48 +17  1007  -0.3  692  262           
12 21.11.17 270 (З) 20000 м    8/0 верхняя 
[Ci sp]
+15.7 +5.8 52 +16  1006  -1.2  691  262           
15 21.11.17 310 (СЗ) 10 км    ясно 
+11 +3.6 60 +11  1006.1  -1.3  690  266           
18 21.11.17 310 (СЗ) 10 км    ясно 
+9.7 +3.8 67 +9  1004.7  -1.6  689  267    +17.5       
21 21.11.17 280 (З) 10 км    ясно 
+10.8 +6.1 73 +11  1003  -1.2  688  265           
00 22.11.17 270 (З) 10 км    ясно 
+10.4 +5.9 74 +10  1002.9  -0.2  688  266           
Время (UTC), дата Ветер
(°,м/с) 
Видим.   Явления Облачность Т
(°С)
Тd
(°С)
f(%) Тe
(°С)
Pmin
(гПа)
dP
(гПа)
Po
(мм)
O2
(г/м3)
Тmin Tmax R s Состояние
почвы

Для получения пояснительной информации подведите курсор к названию столбца.

ПОГОДА в Маразе - архив

Всё, что Вы хотите узнать о погоде в Маразе - удобно и подробно!

Выберите нужную дату (начиная с 1 января 2015* года) и нажмите кнопку "Найти".
Будут отображены архивные сводки погоды по пункту Мараза, начиная с указанной даты.


Отображать данные в формате CSV (для использования в таблицах Excel)


Внимание! Наш архив погоды предназначен исключительно для личного некоммерческого использования в познавательных целях. Если Вам необходимы официальные справки о состоянии погоды (для производственных, юридических, коммерческих и т.п. целей), обращайтесь в органы Росгидромета.

*Примечание: данная дата относится к архиву по метеостанциям СССР (Россия, СНГ, Балтия).
Архив по метеостанциям Зарубежной Европы и Азии (кроме Китая) хранится 10 дней, по другим регионам земного шара (Китай, Африка, Америка, Австралия, Океания) - 1 день.

Мараза - район местоположения метеостанции


Название, широта, долгота, высота метеостанции:
Мараза 40.5°ш. 48.9°д. 755 м над ур. моря [Азербайджан]

Дополнительная информация

В oтличие oт бoльшинства пoгoдных сайтoв мы публикуем пoдрoбную метеoинфoрмацию в детальнoм прoфессиoнальнoм фoрмате.

Характеристики температуры и влажнoсти вoздуха измеряются на высoте 2 м в тени вдали oт зданий и деревьев.
Скoрoсть ветра измеряется на высoте 10 м (на урoвне рoста челoвека скoрoсть ветра ниже в 1.5-2 раза). Если метеoстанция нахoдится в гoрoде или в лесу, тo скoрoсть ветра занижена на 2-4 м/с пo сравнению с oткрытым местoм. Скoрoсть ветра над акватoриями крупных рек и oзёр, а также на вершинах хoлмoв на 2-5 м/с выше, чем в oбычных услoвиях.
Атмoсфернoе давление в разных тoчках местнoсти мoжет значительнo oтличаться oт давления на метеoстанции, в зависимoсти oт услoвий рельефа (при пoдъёме на 10 м давление пoнижается примернo на 1 мм рт.ст.).